Wray Municipal Airport, CO

9:43 PM MDT on April 30, 2017 (GMT -0600)
Wray Municipal Airport

Weather History for K2V5 - March, 2014

Change the Weather History Date:

Tuesday, March 18, 2014

  Actual Average (KSYF) Record (KSYF)
Temperature  
Mean Temperature 40 °F -  
Max Temperature 48 °F 56 °F 80 °F (2017)
Min Temperature 31 °F 27 °F 21 °F (2013)
Degree Days  
Heating Degree Days 26    
Moisture  
Dew Point 26 °F    
Average Humidity 68    
Maximum Humidity 96    
Minimum Humidity 27    
Precipitation  
Precipitation 0.00 in - - ()
Sea Level Pressure  
Sea Level Pressure 29.68 in    
Wind  
Wind Speed 23 mph (NW)    
Max Wind Speed 32 mph    
Max Gust Speed 46 mph    
Visibility 8 miles    
Events Snow    
Averages and records for this station are not official NWS values.
T = Trace of Precipitation, MM = Missing Value Source: NWS Daily Summary

Daily Weather History Graph

Daily Weather History Graph

Search for Another Location

Airport or City:

Trip Planner

Search our weather history database for the weather conditions in past years. The results will help you decide how hot, cold, wet, or windy it might be!

Date:

Astronomy

Mar. 18, 2014 Rise Set
Actual Time 6:55 AM MDT 6:59 PM MDT
Civil Twilight 6:28 AM MDT 7:26 PM MDT
Nautical Twilight 5:56 AM MDT 7:57 PM MDT
Astronomical Twilight 5:24 AM MDT 8:29 PM MDT
Moon 9:18 PM MDT (3/18) 7:46 AM MDT (3/18)
Length of Visible Light 12h 57m
Length of Day
12h 03m
Waning Gibbous, 96% of the Moon is Illuminated
Mar 18
Waning Gibbous
Mar 23
Last Quarter
Mar 30
New
Apr 7
First Quarter
Apr 15
Full

Hourly Weather History & Observations

Time (MDT) Temp. Windchill Dew Point Humidity Pressure Visibility Wind Dir Wind Speed Gust Speed Precip Events Conditions
12:15 AM 47.3 °F - 19.6 °F 33% 29.42 in 10.0 mi WNW 29.9 mph 40.3 mph N/A   Overcast
12:35 AM 47.3 °F - 17.1 °F 30% 29.41 in 10.0 mi NW 28.8 mph 34.5 mph N/A   Overcast
12:55 AM 47.7 °F - 14.7 °F 27% 29.40 in 10.0 mi NW 29.9 mph 40.3 mph N/A   Overcast
1:15 AM 48.6 °F - 16.3 °F 28% 29.42 in 10.0 mi NW 28.8 mph 40.3 mph N/A   Overcast
1:35 AM 46.6 °F - 19.8 °F 34% 29.41 in 10.0 mi NW 31.1 mph 40.3 mph N/A   Mostly Cloudy
1:55 AM 45.5 °F 36.7 °F 18.0 °F 33% 29.42 in 10.0 mi NW 25.3 mph 40.3 mph N/A   Scattered Clouds
2:15 AM 44.6 °F 36.9 °F 16.5 °F 32% 29.43 in 10.0 mi NW 18.4 mph 26.5 mph N/A   Mostly Cloudy
2:35 AM 43.7 °F 35.0 °F 16.5 °F 34% 29.42 in 10.0 mi NW 21.9 mph 31.1 mph N/A   Overcast
2:55 AM 42.8 °F 34.0 °F 15.4 °F 33% 29.42 in 10.0 mi WNW 20.7 mph 28.8 mph N/A   Mostly Cloudy
3:15 AM 41.4 °F 31.9 °F 15.4 °F 35% 29.41 in 10.0 mi NW 21.9 mph 27.6 mph N/A   Clear
3:35 AM 41.0 °F 32.2 °F 16.2 °F 37% 29.41 in 10.0 mi WNW 18.4 mph 27.6 mph N/A   Mostly Cloudy
3:55 AM 40.1 °F 30.7 °F 16.7 °F 39% 29.41 in 10.0 mi WNW 19.6 mph 23.0 mph N/A   Scattered Clouds
4:15 AM 39.7 °F 30.3 °F 16.2 °F 38% 29.41 in 10.0 mi WNW 19.6 mph 26.5 mph N/A   Clear
4:35 AM 39.2 °F 28.7 °F 15.8 °F 39% 29.42 in 10.0 mi WNW 23.0 mph 27.6 mph N/A   Clear
4:55 AM 39.0 °F 29.0 °F 15.4 °F 38% 29.42 in 10.0 mi WNW 20.7 mph 25.3 mph N/A   Clear
5:15 AM 38.1 °F 29.1 °F 15.4 °F 40% 29.42 in 10.0 mi West 16.1 mph - N/A   Clear
5:35 AM 37.6 °F 27.4 °F 15.4 °F 41% 29.43 in 10.0 mi West 19.6 mph 26.5 mph N/A   Clear
5:55 AM 38.3 °F 28.7 °F 18.7 °F 45% 29.43 in 10.0 mi WNW 18.4 mph 27.6 mph N/A   Scattered Clouds
6:15 AM 37.4 °F 28.2 °F 19.2 °F 48% 29.44 in 10.0 mi WNW 16.1 mph - N/A   Clear
6:35 AM 36.5 °F 27.0 °F 21.2 °F 54% 29.47 in 10.0 mi WNW 16.1 mph 21.9 mph N/A   Clear
6:55 AM 35.6 °F 26.6 °F 23.0 °F 60% 29.48 in 10.0 mi WNW 13.8 mph - N/A   Clear
7:15 AM 35.2 °F 25.4 °F 24.1 °F 64% 29.49 in 10.0 mi NW 16.1 mph 20.7 mph N/A   Clear
7:35 AM 35.4 °F 25.3 °F 25.2 °F 66% 29.50 in 10.0 mi NW 17.3 mph 23.0 mph N/A   Clear
7:55 AM 36.7 °F 26.0 °F 26.4 °F 66% 29.51 in 10.0 mi NW 20.7 mph 25.3 mph N/A   Clear
8:15 AM 37.8 °F 26.6 °F 29.1 °F 71% 29.52 in 10.0 mi NNW 24.2 mph 31.1 mph N/A   Scattered Clouds
8:35 AM 37.6 °F 27.4 °F 30.4 °F 75% 29.53 in 10.0 mi NNW 19.6 mph 29.9 mph N/A   Overcast
8:55 AM 36.7 °F 24.9 °F 31.3 °F 81% 29.55 in 10.0 mi NNW 25.3 mph 32.2 mph N/A   Overcast
9:15 AM 36.0 °F 24.7 °F 30.4 °F 80% 29.57 in 10.0 mi North 21.9 mph 35.7 mph N/A   Overcast
9:35 AM 36.1 °F 24.2 °F 29.3 °F 76% 29.58 in 10.0 mi North 25.3 mph 34.5 mph N/A   Overcast
9:55 AM 36.5 °F 24.9 °F 29.8 °F 77% 29.60 in 10.0 mi NNW 24.2 mph 31.1 mph N/A   Overcast
10:15 AM 35.8 °F 23.7 °F 29.7 °F 78% 29.61 in 10.0 mi North 25.3 mph 34.5 mph N/A   Overcast
10:35 AM 35.1 °F 23.0 °F 30.0 °F 82% 29.63 in 10.0 mi North 24.2 mph 36.8 mph N/A   Overcast
10:55 AM 34.5 °F 23.1 °F 31.6 °F 89% 29.64 in 2.5 mi NNW 20.7 mph 26.5 mph N/A Snow Light Snow
11:15 AM 32.9 °F 20.1 °F 31.1 °F 93% 29.66 in 1.0 mi NNW 24.2 mph 38.0 mph N/A Snow Light Snow
11:35 AM 33.3 °F 22.1 °F 31.1 °F 92% 29.67 in 4.0 mi NNW 18.4 mph 33.4 mph N/A Snow Light Snow
11:55 AM 33.1 °F 21.2 °F 32.0 °F 96% 29.68 in 0.5 mi NNW 20.7 mph 27.6 mph N/A Snow Light Snow
12:15 PM 33.8 °F 20.5 °F 32.0 °F 93% 29.69 in 1.2 mi NNW 27.6 mph 39.1 mph N/A Snow Light Snow
12:35 PM 34.0 °F 20.5 °F 32.0 °F 92% 29.70 in 2.5 mi NNW 28.8 mph 36.8 mph N/A Snow Light Snow
12:55 PM 33.4 °F 19.6 °F 32.0 °F 94% 29.72 in 0.8 mi NNW 29.9 mph 39.1 mph N/A Snow Light Snow
1:15 PM 33.8 °F 20.3 °F 32.0 °F 93% 29.73 in 1.0 mi NNW 28.8 mph 38.0 mph N/A Snow Light Snow
1:35 PM 33.4 °F 19.4 °F 32.0 °F 94% 29.75 in 0.8 mi NNW 31.1 mph 41.4 mph N/A Snow Light Snow
1:55 PM 33.4 °F 19.8 °F 32.0 °F 94% 29.76 in 1.0 mi NNW 28.8 mph 41.4 mph N/A Snow Light Snow
2:15 PM 33.8 °F 20.3 °F 32.0 °F 93% 29.77 in 0.8 mi NNW 28.8 mph 41.4 mph N/A Snow Light Snow
2:35 PM 33.8 °F 20.3 °F 32.0 °F 93% 29.79 in 1.2 mi NNW 28.8 mph 35.7 mph N/A Snow Light Snow
2:55 PM 34.3 °F 20.4 °F 32.0 °F 91% 29.81 in 4.0 mi NNW 32.2 mph 42.6 mph N/A Snow Light Snow
3:15 PM 35.2 °F 21.6 °F 29.8 °F 81% 29.82 in 10.0 mi NW 32.2 mph 46.0 mph N/A   Overcast
3:35 PM 35.8 °F 24.2 °F 30.7 °F 82% 29.85 in 10.0 mi NW 23.0 mph 34.5 mph N/A   Overcast
3:55 PM 36.5 °F 24.7 °F 30.0 °F 77% 29.86 in 10.0 mi NW 25.3 mph 32.2 mph N/A   Overcast
4:15 PM 36.9 °F 25.6 °F 30.0 °F 76% 29.88 in 10.0 mi NNW 23.0 mph 35.7 mph N/A   Overcast
4:35 PM 37.0 °F 26.7 °F 30.6 °F 77% 29.90 in 10.0 mi NNW 19.6 mph 27.6 mph N/A   Overcast
7:15 PM 35.8 °F 25.7 °F 30.2 °F 80% 29.97 in 10.0 mi NW 17.3 mph 24.2 mph N/A   Scattered Clouds
7:35 PM 35.6 °F 26.2 °F 29.3 °F 78% 29.99 in 10.0 mi NW 15.0 mph 23.0 mph N/A   Clear
7:55 PM 35.1 °F 25.9 °F 29.1 °F 79% 30.00 in 10.0 mi NW 13.8 mph - N/A   Scattered Clouds
8:15 PM 34.3 °F 25.5 °F 28.8 °F 80% 30.01 in 10.0 mi NW 12.7 mph - N/A   Clear
8:35 PM 34.2 °F 25.2 °F 28.6 °F 80% 30.03 in 10.0 mi NW 12.7 mph 19.6 mph N/A   Clear
8:55 PM 33.8 °F 23.9 °F 28.4 °F 81% 30.04 in 10.0 mi NW 15.0 mph - N/A   Clear
9:15 PM 34.0 °F 25.0 °F 28.4 °F 80% 30.04 in 10.0 mi NW 12.7 mph - N/A   Clear
9:35 PM 33.4 °F 24.3 °F 28.4 °F 82% 30.05 in 10.0 mi WNW 12.7 mph - N/A   Clear
9:55 PM 33.3 °F 24.1 °F 28.2 °F 82% 30.05 in 10.0 mi WNW 12.7 mph 18.4 mph N/A   Clear
10:15 PM 32.7 °F 23.4 °F 27.7 °F 82% 30.06 in 10.0 mi WNW 12.7 mph - N/A   Clear
10:35 PM 32.4 °F 23.0 °F 27.5 °F 82% 30.06 in 10.0 mi WNW 12.7 mph - N/A   Clear
10:55 PM 32.0 °F 23.0 °F 27.5 °F 83% 30.07 in 10.0 mi WNW 11.5 mph - N/A   Clear
11:15 PM 32.0 °F 23.6 °F 26.6 °F 80% 30.07 in 10.0 mi WNW 10.4 mph - N/A   Clear
11:35 PM 31.6 °F 22.1 °F 26.2 °F 80% 30.07 in 10.0 mi NW 12.7 mph - N/A   Clear
11:55 PM 31.1 °F 21.9 °F 26.1 °F 82% 30.06 in 10.0 mi NW 11.5 mph - N/A   Clear